Driggs, ID

8:09 AM MST on January 18, 2018 (GMT -0700)
Driggs

Weather History for KDIJ - May, 2013

Change the Weather History Date:

Saturday, May 18, 2013

  Actual Average (KJAC) Record (KJAC)
Temperature  
Mean Temperature 42 °F -  
Max Temperature 45 °F 63 °F 77 °F (1988)
Min Temperature 39 °F 31 °F 22 °F (1965)
Degree Days  
Heating Degree Days 23    
Moisture  
Dew Point 40 °F    
Average Humidity 90    
Maximum Humidity 100    
Minimum Humidity 81    
Precipitation  
Precipitation 0.58 in - - ()
Sea Level Pressure  
Sea Level Pressure 29.97 in    
Wind  
Wind Speed 7 mph (SE)    
Max Wind Speed 15 mph    
Max Gust Speed 18 mph    
Visibility 7 miles    
Events Rain    
Averages and records for this station are not official NWS values.
T = Trace of Precipitation, MM = Missing Value Source: NWS Daily Summary

Daily Weather History Graph

Daily Weather History Graph

Search for Another Location

Airport or City:

Trip Planner

Search our weather history database for the weather conditions in past years. The results will help you decide how hot, cold, wet, or windy it might be!

Date:

Astronomy

May. 18, 2013 Rise Set
Actual Time 5:55 AM MDT 8:46 PM MDT
Civil Twilight 5:22 AM MDT 9:20 PM MDT
Nautical Twilight 4:39 AM MDT 10:03 PM MDT
Astronomical Twilight 3:50 AM MDT 10:53 PM MDT
Moon 1:40 PM MDT 2:03 AM MDT
Length of Visible Light 15h 58m
Length of Day
14h 50m
First Quarter, 56% of the Moon is Illuminated
May 18
First Quarter
May 24
Full
May 31
Last Quarter
Jun 8
New
Jun 16
First Quarter

Hourly Weather History & Observations

Time (MDT) Temp. Windchill Dew Point Humidity Pressure Visibility Wind Dir Wind Speed Gust Speed Precip Events Conditions
12:56 AM 45.0 °F 43.5 °F 41.0 °F 86% 29.85 in 10.0 mi SE 3.5 mph - N/A   Overcast
1:56 AM 45.0 °F - 41.0 °F 86% 29.83 in 10.0 mi Calm Calm - N/A   Overcast
2:56 AM 43.9 °F 41.3 °F 41.9 °F 93% 29.82 in 10.0 mi ENE 4.6 mph - N/A   Overcast
3:56 AM 45.0 °F - 41.9 °F 89% 29.81 in 10.0 mi Calm Calm - N/A   Overcast
4:56 AM 43.9 °F 40.5 °F 43.0 °F 97% 29.82 in 7.0 mi South 5.8 mph - 0.01 in Rain Light Rain
5:40 AM 44.6 °F 40.7 °F 44.6 °F 100% 29.97 in 8.0 mi South 6.9 mph - 0.03 in Rain Light Rain
5:49 AM 44.6 °F 39.7 °F 42.8 °F 93% 29.97 in 6.0 mi South 9.2 mph - 0.04 in Rain Light Rain
5:56 AM 43.9 °F 39.3 °F 43.0 °F 97% 29.83 in 4.0 mi South 8.1 mph - 0.05 in Rain Light Rain
6:56 AM 41.9 °F 40.0 °F 41.0 °F 97% 29.85 in 10.0 mi South 3.5 mph - 0.04 in Rain Light Rain
7:25 AM 42.8 °F 38.0 °F 42.8 °F 100% 30.00 in 4.0 mi SSE 8.1 mph - 0.04 in Rain Light Rain
7:32 AM 42.8 °F 38.0 °F 41.0 °F 93% 30.00 in 6.0 mi SSE 8.1 mph - 0.04 in Rain Light Rain
7:56 AM 41.9 °F 36.9 °F 39.9 °F 93% 29.86 in 7.0 mi SE 8.1 mph - 0.07 in Rain Light Rain
8:19 AM 41.0 °F 34.7 °F 39.2 °F 93% 30.00 in 3.0 mi SE 10.4 mph - 0.03 in Rain Rain
8:56 AM 41.0 °F 34.7 °F 38.8 °F 92% 29.89 in 4.0 mi SE 10.4 mph - 0.07 in Rain Light Rain
9:56 AM 41.0 °F 34.7 °F 37.9 °F 89% 29.91 in 10.0 mi SSE 10.4 mph - 0.05 in Rain Light Rain
10:10 AM 41.0 °F 34.7 °F 37.4 °F 87% 30.02 in 10.0 mi SSE 10.4 mph - 0.01 in Rain Light Rain
10:56 AM 41.0 °F 34.7 °F 37.9 °F 89% 29.92 in 3.0 mi ESE 10.4 mph - 0.04 in Rain Light Rain
11:11 AM 41.0 °F 35.2 °F 37.4 °F 87% 30.02 in 3.0 mi SE 9.2 mph - 0.01 in Rain Light Rain
11:29 AM 41.0 °F 35.2 °F 39.2 °F 93% 30.02 in 6.0 mi SE 9.2 mph - 0.03 in Rain Light Rain
11:40 AM 42.8 °F 37.5 °F 39.2 °F 87% 30.02 in 3.0 mi SE 9.2 mph - 0.03 in Rain Light Rain
11:56 AM 41.9 °F 36.3 °F 38.8 °F 89% 29.91 in 7.0 mi SE 9.2 mph - 0.04 in Rain Light Rain
12:56 PM 43.0 °F 36.8 °F 38.8 °F 85% 29.91 in 10.0 mi SSE 11.5 mph - 0.00 in   Overcast
1:07 PM 42.8 °F 36.6 °F 39.2 °F 87% 30.02 in 8.0 mi SSE 11.5 mph - 0.01 in Rain Light Rain
1:56 PM 43.0 °F 37.2 °F 39.9 °F 89% 29.91 in 8.0 mi SSE 10.4 mph - 0.02 in Rain Light Rain
2:56 PM 45.0 °F 38.9 °F 41.0 °F 86% 29.91 in 10.0 mi South 12.7 mph - 0.02 in Rain Light Rain
3:29 PM 44.6 °F 39.2 °F 41.0 °F 87% 30.04 in 10.0 mi South 10.4 mph - 0.00 in Rain Light Rain
3:56 PM 45.0 °F 40.6 °F 41.0 °F 86% 29.92 in 10.0 mi ESE 8.1 mph - 0.01 in Rain Light Rain
4:46 PM 44.6 °F 39.7 °F 39.2 °F 81% 30.05 in 4.0 mi North 9.2 mph - 0.01 in Rain Light Rain
4:49 PM 44.6 °F 37.8 °F 39.2 °F 81% 30.05 in 1.8 mi NW 15.0 mph 18.4 mph 0.01 in Rain Light Rain
4:56 PM 43.9 °F 37.9 °F 41.0 °F 90% 29.94 in 1.0 mi NNW 11.5 mph - 0.02 in Rain Heavy Rain
4:59 PM 42.8 °F 36.2 °F 41.0 °F 93% 30.05 in 1.5 mi NNW 12.7 mph - 0.00 in Rain Heavy Rain
5:05 PM 42.8 °F 37.0 °F 41.0 °F 93% 30.05 in 3.0 mi North 10.4 mph - 0.01 in Rain Rain
5:12 PM 42.8 °F 36.6 °F 39.2 °F 87% 30.06 in 1.8 mi NNE 11.5 mph - 0.03 in Rain Heavy Rain
5:31 PM 42.8 °F 37.0 °F 41.0 °F 93% 30.05 in 2.0 mi NNE 10.4 mph - 0.07 in Rain Heavy Rain
5:44 PM 42.8 °F 37.5 °F 41.0 °F 93% 30.06 in 10.0 mi NNE 9.2 mph - 0.07 in Rain Light Rain
5:56 PM 43.0 °F 38.2 °F 39.9 °F 89% 29.95 in 8.0 mi North 8.1 mph - 0.08 in Rain Light Rain
6:56 PM 41.9 °F 38.2 °F 37.9 °F 86% 29.98 in 2.5 mi South 5.8 mph - 0.04 in Rain Light Rain
7:01 PM 42.8 °F 38.6 °F 37.4 °F 81% 30.07 in 5.0 mi South 6.9 mph - 0.01 in Rain Light Rain
7:08 PM 42.8 °F 38.6 °F 39.2 °F 87% 30.07 in 4.0 mi South 6.9 mph - 0.01 in Rain Light Rain
7:17 PM 42.8 °F 37.5 °F 39.2 °F 87% 30.07 in 10.0 mi South 9.2 mph - 0.02 in Rain Light Rain
7:30 PM 42.8 °F 38.0 °F 39.2 °F 87% 30.07 in 10.0 mi SSE 8.1 mph - 0.02 in Rain Light Rain
7:38 PM 42.8 °F 37.0 °F 39.2 °F 87% 30.07 in 10.0 mi SSE 10.4 mph - 0.02 in   Overcast
7:56 PM 41.0 °F 36.4 °F 37.9 °F 89% 29.98 in 10.0 mi South 6.9 mph - 0.02 in   Overcast
8:56 PM 41.9 °F 38.2 °F 37.9 °F 86% 29.98 in 10.0 mi SSE 5.8 mph - N/A   Mostly Cloudy
9:56 PM 41.9 °F 38.2 °F 38.8 °F 89% 29.97 in 10.0 mi SE 5.8 mph - 0.00 in   Mostly Cloudy
10:56 PM 39.9 °F 35.8 °F 38.8 °F 96% 29.96 in 10.0 mi East 5.8 mph - 0.00 in   Mostly Cloudy
11:56 PM 39.9 °F 35.8 °F 37.9 °F 93% 29.96 in 10.0 mi ENE 5.8 mph - N/A   Mostly Cloudy